Skip Page Navigation
NASA JPL Caltech
NASA Logo - Jet Propulsion Laboratory + View the NASA Portal
+ Center for Near-Earth Object Studies
JPL Home Earth Solar System Stars & Galaxies Technology
JPL Solar System Dynamics
BODIES ORBITS EPHEMERIDES TOOLS PHYSICAL DATA DISCOVERY FAQ SITE MAP
JPL Small-Body Database Browser
Search: [ help ]  
152680 (1998 KJ9)
Classification: Apollo [NEO, PHA]          SPK-ID: 2152680
Ephemeris | Orbit Diagram | Orbital Elements | Mission Design | Physical Parameters | Discovery Circumstances | Close-Approach Data ]

[ show orbit diagram ]
Orbital Elements at Epoch 2459200.5 (2020-Dec-17.0) TDB
Reference: JPL 35 (heliocentric ecliptic J2000)
 Element Value Uncertainty (1-sigma)   Units 
e .6397349375750881 5.1593e-08  
a 1.447719076976776 4.5728e-09 au
q .5215626036407741 7.391e-08 au
i 10.93089230803532 1.1386e-05 deg
node 98.58114787568132 3.8186e-05 deg
peri 260.0610677382592 3.6864e-05 deg
M 304.5994876529081 2.5716e-05 deg
tp 2459298.412052153496
(2021-Mar-24.91205215)
4.5898e-05 TDB
period 636.2457183504538
1.74
3.0145e-06
8.253e-09
d
yr
n .5658191318494761 2.6808e-09 deg/d
Q 2.373875550312779 7.4982e-09 au
  Orbit Determination Parameters
   # obs. used (total)      215  
   data-arc span      10299 days (28.20 yr)  
   first obs. used      1990-01-01  
   last obs. used      2018-03-14  
   planetary ephem.      DE441  
   SB-pert. ephem.      SB441-N16  
   condition code      0  
   norm. resid. RMS      .52447  
   source      ORB  
   producer      Otto Matic  
   solution date      2021-Apr-13 19:28:10  

Additional Information
 Earth MOID = .00572161 au 
 Jupiter MOID = 3.13662 au 
 T_jup = 4.390 
[ show covariance matrix ]

Ephemeris | Orbit Diagram | Orbital Elements | Mission Design | Physical Parameters | Discovery Circumstances | Close-Approach Data ]

Physical Parameter Table
Parameter Symbol Value Units Sigma Reference Notes
absolute magnitude H 19.4   n/a MPO192326  

152680 (1998 KJ9)          Discovered 1998-May-27 by LINEAR at Socorro
Reference: 20070402/Numbers.arcLast Updated: 2007-04-04

[ hide close-approach data ]
Close-Approach Data   ...sorted by Date/Time (TDB)
Date/Time (TDB) Time Uncertainty
(days_HH:MM)
Body Nominal Distance (au) Minimum Distance (au) Maximum Distance (au) V-relative (km/s) V-infinity (km/s) JD (TDB) Time Uncertainty (minutes) Semi-major axis (km) Semi-minor axis (km) range-LOV angle (deg) N-sigma BP Orbit Ref. Reference Modified
1900-Jun-14 09:56 07:33 Earth 0.131926317115611 0.127893423731973 0.136027690745241 17.9741571888086 17.9730335002516 2415184.913573085 453.163140696981 252193.888463959 10.9611777436241 36.4455230814801 1079572.78426212 T 35 CATAB v2.0f-lin.ifort 2021-Apr-13 19:28:11 2021-Apr-13 19:28
1900-Jul-07 06:23 08:18 Venus 0.0165777757171131 0.011199280969401 0.0222156178049383 21.3317247143216 21.3255831466961 2415207.765759375 497.566697608652 293563.354092061 27.053875880901 -19.44910128485 30076.9884617485 T 35 CATAB v2.0f-lin.ifort 2021-Apr-13 19:28:11 2021-Apr-13 19:28
1906-Jan-23 02:42 03:22 Earth 0.492285249251689 0.48932999130107 0.495240551068485 36.059460537049 36.0593104382516 2417233.612437850 201.880651826284 147549.936582276 8.95840241393184 2.85081562306147 392918.073667045 T 35 CATAB v2.0f-lin.ifort 2021-Apr-13 19:28:11 2021-Apr-13 19:28
1907-Sep-24 05:42 06:04 Earth 0.494919302486102 0.494863922151341 0.494975540462522 22.8817543620268 22.8815190788483 2417842.737340207 364.418482547775 32607.4747570933 10.3502347607319 -85.1042285966027 6689867.74268482 T 35 CATAB v2.0f-lin.ifort 2021-Apr-13 19:28:11 2021-Apr-13 19:28
1909-May-20 12:31 02:03 Earth 0.381739400102329 0.379943177971906 0.383536156755633 31.9943242522984 31.9941060929092 2418447.021819190 123.066727830774 92372.2138848724 13.3568800170817 -14.1151514204864 1001687.58747841 T 35 CATAB v2.0f-lin.ifort 2021-Apr-13 19:28:11 2021-Apr-13 19:28
1914-Dec-31 12:01 < 00:01 Earth 0.0015574336824844 0.00155319713601045 0.00156167145646694 21.1045856776594 21.023365778068 2420498.000375301 0.33581743570274 222.363215249923 16.6179795251569 18.2058381455069 4086.09829838913 T 35 CATAB v2.0f-lin.ifort 2021-Apr-13 19:28:11 2021-Apr-13 19:28
1914-Dec-31 17:19 < 00:01 Moon 0.00181824332204733 0.00181437159528246 0.00182211833213176 21.1114925598478 21.1106387589283 2420498.221238392 0.306943992091109 228.610221063643 16.6122922852803 32.4365381519199 8735.54776579291 T 35 CATAB v2.0f-lin.ifort 2021-Apr-13 19:28:11 2021-Apr-13 19:28
1916-Jun-21 21:55 < 00:01 Earth 0.23957058151771 0.239565404652603 0.239575758404702 14.8558422056208 14.8550935319927 2421036.413352653 0.813933376697002 282.34096112452 14.7210967580578 23.9200761536333 1089687.90264077 T 35 CATAB v2.0f-lin.ifort 2021-Apr-13 19:28:11 2021-Apr-13 19:28
1916-Jul-19 16:47 00:01 Venus 0.139445977571593 0.139440807914399 0.139451147234242 15.4953389637092 15.4943339408086 2421064.199049473 1.4229130426852 261.444155595522 12.626684164111 9.59960311941395 289556.069756637 T 35 CATAB v2.0f-lin.ifort 2021-Apr-13 19:28:11 2021-Apr-13 19:28
1921-Dec-23 19:33 < 00:01 Earth 0.154403766689237 0.154397176959545 0.154410356419358 16.5999436329412 16.5989040444763 2423047.314270970 0.54505702536657 328.852055873796 17.1676765622759 2.18114089386906 94602.0957800752 T 35 CATAB v2.0f-lin.ifort 2021-Apr-13 19:28:11 2021-Apr-13 19:28
1923-Jun-11 17:53 < 00:01 Earth 0.11408884454588 0.114083585546972 0.114094103799293 18.7111358575468 18.7098876594708 2423582.245132261 0.618965855967672 375.845124116093 16.2413777322207 45.8053465053771 770091.387091602 T 35 CATAB v2.0f-lin.ifort 2021-Apr-13 19:28:11 2021-Apr-13 19:28
1928-Dec-11 02:14 00:02 Earth 0.303006467387163 0.30299879621865 0.303014138751805 12.4732880987463 12.4725830944254 2425591.592879161 2.25160239611152 542.392419748937 9.08008113531958 45.1530693830553 3193317.24441138 T 35 CATAB v2.0f-lin.ifort 2021-Apr-13 19:28:11 2021-Apr-13 19:28
1930-Jun-03 17:23 < 00:01 Earth 0.100900368817588 0.100895135012463 0.10090560307929 22.7339987887165 22.7328371933636 2426131.224480649 0.613359441558717 427.961815094788 16.6777843770517 -52.4776143686067 704318.745146036 T 35 CATAB v2.0f-lin.ifort 2021-Apr-13 19:28:11 2021-Apr-13 19:28
1935-Nov-08 15:00 00:02 Earth 0.410905424465512 0.41090133788472 0.410909511046328 16.5865392461896 16.5861482974477 2428115.124992705 1.84436818128034 203.875945614851 15.2687963221055 -1.8844137145782 222501.164205725 T 35 CATAB v2.0f-lin.ifort 2021-Apr-13 19:28:11 2021-Apr-13 19:28
1937-May-27 00:39 < 00:01 Earth 0.224357961148158 0.224349510430346 0.22436641191688 27.0718613555496 27.0714226670253 2428680.526938739 0.623270115154374 453.901875738855 16.9193324166987 -21.8297231050416 715745.005502613 T 35 CATAB v2.0f-lin.ifort 2021-Apr-13 19:28:11 2021-Apr-13 19:28
1942-Oct-19 21:28 00:01 Earth 0.466304544984486 0.466302510576088 0.466306579399192 20.4267128442182 20.4264331089667 2430652.394597544 1.4111441689254 133.331981884869 16.1445022062272 -40.8256862728651 2202102.47036287 T 35 CATAB v2.0f-lin.ifort 2021-Apr-13 19:28:11 2021-Apr-13 19:28
1944-May-19 13:36 < 00:01 Earth 0.36570444818291 0.365696031171208 0.365712865207626 31.4977840347673 31.4975527198144 2431230.066788568 0.591176559005924 433.614850684219 17.0626919121 -14.5551037429149 784283.184518591 T 35 CATAB v2.0f-lin.ifort 2021-Apr-13 19:28:11 2021-Apr-13 19:28
1949-Oct-03 02:50 00:01 Earth 0.493765032291926 0.49376431675999 0.493765747831413 22.5977456610981 22.5975068639122 2433192.618194619 1.22232767613669 108.188884516056 11.8996461199223 -71.7716349528777 4968694.85294025 T 35 CATAB v2.0f-lin.ifort 2021-Apr-13 19:28:11 2021-Apr-13 19:28
1963-Sep-02 21:44 < 00:01 Earth 0.489894615667915 0.489893607862744 0.489895623478321 22.3639636227811 22.3637204229467 2438275.405755848 0.917432850477111 94.6765934160843 5.60639238617843 58.1021989166279 7608026.27713331 T 35 CATAB v2.0f-lin.ifort 2021-Apr-13 19:28:11 2021-Apr-13 19:28
1969-Jan-17 14:05 < 00:01 Earth 0.371879690339115 0.371875327022799 0.371884053655833 32.3188582780667 32.3186365833336 2440239.086956996 0.333824217391361 218.411864558619 13.5511236141544 5.01241416168782 422251.773586776 T 35 CATAB v2.0f-lin.ifort 2021-Apr-13 19:28:11 2021-Apr-13 19:28
1970-Aug-17 19:42 < 00:01 Earth 0.460344537109292 0.460343073387603 0.460346000834383 20.2388978707133 20.238611884187 2440816.320554039 0.765987248988644 96.2976578120308 8.81951608908538 40.9263445914147 3562902.75808702 T 35 CATAB v2.0f-lin.ifort 2021-Apr-13 19:28:11 2021-Apr-13 19:28
1976-Jan-11 19:47 < 00:01 Earth 0.230104104642491 0.230101419096686 0.230106790188584 27.9493081880622 27.9488938830881 2442789.324401334 0.219948762312271 134.533289440514 13.9870485535507 5.5196237051264 335184.613646222 T 35 CATAB v2.0f-lin.ifort 2021-Apr-13 19:28:11 2021-Apr-13 19:28
1977-Jul-30 12:33 < 00:01 Earth 0.407427321865982 0.407425747473092 0.407428896261002 17.018875188358 17.0184909185554 2443355.023054306 0.591719862925907 91.5132415828126 10.2400192272932 31.1414518678534 2171510.99511811 T 35 CATAB v2.0f-lin.ifort 2021-Apr-13 19:28:11 2021-Apr-13 19:28
1983-Jan-05 05:45 < 00:01 Earth 0.0914619278350455 0.0914611368738346 0.0914627187968282 23.7539841265384 23.7527576852707 2445339.739829972 0.0974680556836556 41.2336279524488 12.7296231362502 17.8537269632535 444643.921239946 T 35 CATAB v2.0f-lin.ifort 2021-Apr-13 19:28:11 2021-Apr-13 19:28
1984-Jul-07 08:47 < 00:01 Earth 0.323968760323813 0.323967749041171 0.323969771607211 13.8318947569006 13.8313001405023 2445888.866253511 0.297319752269564 56.4535866516419 11.544445695577 27.3394672560915 1671270.27155453 T 35 CATAB v2.0f-lin.ifort 2021-Apr-13 19:28:11 2021-Apr-13 19:28
1989-Dec-30 08:22 < 00:01 Earth 0.0302244976888611 0.0302228739567773 0.0302261214210995 20.1982024976552 20.1938374652396 2447890.848657225 0.0859951968662216 81.0435766876016 17.4073393116595 2.49429482137759 57281.6893382738 T 35 CATAB v2.0f-lin.ifort 2021-Apr-13 19:28:11 2021-Apr-13 19:28
